RYR2HU EIDW-LFBH

Flight info

Callsign RYR2HU
Flight time 1h 32m
Altitude 31000
Route PESIT4E PESIT DCT BAKUR DCT GUBJE DCT GISOK DCT TACQI DCT MANIG DCT BADUR DCT KORER UM616 NTS A25 LUSON
Aircraft B738/M-SDE2E3FGHIRWXY/LB1

Departure

Time 2026-05-07 15:38
Airport Dublin Airport (EIDW)

Arrival

Time 2026-05-07 17:11
Airport La Rochelle Île de Ré Airport (LFBH)
Time Latitude Longitude Altitude Speed Heading
2026-05-07 15:20 53.43001 -6.24813 210 ft 0 kts
2026-05-07 15:26 53.42998 -6.24813 210 ft 3 kts
2026-05-07 15:26 53.42972 -6.24814 213 ft 4 kts 349°
2026-05-07 15:26 53.42948 -6.24798 210 ft 4 kts 312°
2026-05-07 15:26 53.42940 -6.24774 219 ft 0 kts 275°
2026-05-07 15:30 53.42938 -6.24823 218 ft 15 kts 255°
2026-05-07 15:31 53.42858 -6.24976 212 ft 19 kts 225°
2026-05-07 15:31 53.42761 -6.25115 212 ft 18 kts 225°
2026-05-07 15:31 53.42676 -6.25264 210 ft 17 kts 225°
2026-05-07 15:31 53.42591 -6.25403 209 ft 17 kts 223°
2026-05-07 15:32 53.42509 -6.25538 217 ft 16 kts 226°
2026-05-07 15:32 53.42437 -6.25662 214 ft 13 kts 225°
2026-05-07 15:32 53.42375 -6.25770 210 ft 13 kts 229°
2026-05-07 15:32 53.42317 -6.25880 213 ft 13 kts 226°
2026-05-07 15:33 53.42262 -6.26111 210 ft 26 kts 264°
2026-05-07 15:33 53.42274 -6.26414 214 ft 25 kts 274°
2026-05-07 15:33 53.42289 -6.26690 210 ft 23 kts 276°
2026-05-07 15:33 53.42303 -6.26953 210 ft 22 kts 274°
2026-05-07 15:34 53.42317 -6.27209 210 ft 22 kts 275°
2026-05-07 15:34 53.42331 -6.27474 210 ft 27 kts 275°
2026-05-07 15:34 53.42348 -6.27785 215 ft 26 kts 275°
2026-05-07 15:34 53.42359 -6.27981 210 ft 25 kts 275°
2026-05-07 15:35 53.42374 -6.28264 210 ft 13 kts 275°
2026-05-07 15:35 53.42380 -6.28363 219 ft 14 kts 275°
2026-05-07 15:35 53.42400 -6.28726 210 ft 27 kts 274°
2026-05-07 15:35 53.42403 -6.29006 210 ft 19 kts 248°
2026-05-07 15:36 53.42296 -6.29075 209 ft 19 kts 171°
2026-05-07 15:36 53.42241 -6.28989 208 ft 9 kts 96°
2026-05-07 15:36 53.42240 -6.28974 215 ft 2 kts 95°
2026-05-07 15:36 53.42239 -6.28956 215 ft 2 kts 95°
2026-05-07 15:37 53.42239 -6.28949 210 ft 0 kts 95°
2026-05-07 15:37 53.42239 -6.28948 211 ft 0 kts 95°
2026-05-07 15:37 53.42239 -6.28945 211 ft 2 kts 95°
2026-05-07 15:37 53.42214 -6.28516 215 ft 72 kts 95°
2026-05-07 15:38 53.42147 -6.27296 215 ft 135 kts 96°
2026-05-07 15:38 53.42057 -6.25460 359 ft 171 kts 98°
2026-05-07 15:38 53.41956 -6.23461 1011 ft 173 kts 99°
2026-05-07 15:38 53.41867 -6.21492 1799 ft 169 kts 102°
2026-05-07 15:39 53.41723 -6.19466 2423 ft 181 kts 101°
2026-05-07 15:39 53.41584 -6.17276 2916 ft 201 kts 100°
2026-05-07 15:39 53.41444 -6.14832 3304 ft 217 kts 99°
2026-05-07 15:39 53.41304 -6.12254 3796 ft 225 kts 99°
2026-05-07 15:40 53.41164 -6.09606 4376 ft 233 kts 98°
2026-05-07 15:40 53.41006 -6.06719 4466 ft 267 kts 99°
2026-05-07 15:40 53.40735 -6.03547 5063 ft 273 kts 112°
2026-05-07 15:40 53.39721 -6.01004 6015 ft 262 kts 144°
2026-05-07 15:41 53.38125 -5.99627 6789 ft 258 kts 168°
2026-05-07 15:41 53.37918 -5.99537 6886 ft 257 kts 170°
2026-05-07 15:42 53.37077 -5.99325 7255 ft 258 kts 180°
2026-05-07 15:42 53.35284 -5.99624 7921 ft 263 kts 192°
2026-05-07 15:42 53.33483 -6.00204 8645 ft 266 kts 192°
2026-05-07 15:42 53.31683 -6.00788 9065 ft 262 kts 192°
2026-05-07 15:43 53.29870 -6.01362 9805 ft 267 kts 192°
2026-05-07 15:43 53.28026 -6.01995 10363 ft 278 kts 196°
2026-05-07 15:43 53.26097 -6.02969 10526 ft 301 kts 199°
2026-05-07 15:43 53.24047 -6.04070 10899 ft 316 kts 198°
2026-05-07 15:44 53.21928 -6.05182 11564 ft 321 kts 198°
2026-05-07 15:44 53.19820 -6.06259 12329 ft 324 kts 197°
2026-05-07 15:44 53.17593 -6.06942 13057 ft 329 kts 187°
2026-05-07 15:44 53.15297 -6.07266 13789 ft 334 kts 186°
2026-05-07 15:45 53.12970 -6.07580 14501 ft 337 kts 186°
2026-05-07 15:45 53.10605 -6.07567 15156 ft 345 kts 171°
2026-05-07 15:45 53.08267 -6.06567 15884 ft 350 kts 167°
2026-05-07 15:45 53.05910 -6.05458 16551 ft 355 kts 166°
2026-05-07 15:46 53.01118 -6.03202 17988 ft 362 kts 167°
2026-05-07 15:46 52.98679 -6.02071 18612 ft 366 kts 167°
2026-05-07 15:46 52.96212 -6.00937 19196 ft 370 kts 167°
2026-05-07 15:47 52.93721 -5.99799 19793 ft 373 kts 167°
2026-05-07 15:47 52.91205 -5.98655 20400 ft 376 kts 167°
2026-05-07 15:47 52.88673 -5.97508 21000 ft 379 kts 167°
2026-05-07 15:47 52.86114 -5.96351 21577 ft 383 kts 167°
2026-05-07 15:48 52.83533 -5.95186 22135 ft 386 kts 167°
2026-05-07 15:48 52.80928 -5.94012 22694 ft 390 kts 167°
2026-05-07 15:48 52.78302 -5.92829 23253 ft 393 kts 167°
2026-05-07 15:48 52.75653 -5.91638 23754 ft 396 kts 167°
2026-05-07 15:49 52.72990 -5.90442 24217 ft 398 kts 167°
2026-05-07 15:49 52.70304 -5.89237 24703 ft 401 kts 167°
2026-05-07 15:49 52.67642 -5.88044 25144 ft 403 kts 167°
2026-05-07 15:49 52.64933 -5.86832 25628 ft 404 kts 167°
2026-05-07 15:50 52.62226 -5.85621 26236 ft 402 kts 167°
2026-05-07 15:50 52.59539 -5.84421 26868 ft 399 kts 167°
2026-05-07 15:50 52.56861 -5.83227 27433 ft 398 kts 167°
2026-05-07 15:50 52.54189 -5.82037 27973 ft 398 kts 167°
2026-05-07 15:51 52.51519 -5.80850 28558 ft 397 kts 167°
2026-05-07 15:51 52.48863 -5.79670 29157 ft 395 kts 167°
2026-05-07 15:51 52.46213 -5.78495 29721 ft 394 kts 167°
2026-05-07 15:51 52.43571 -5.77324 30222 ft 393 kts 167°
2026-05-07 15:52 52.40940 -5.76161 30697 ft 391 kts 167°
2026-05-07 15:52 52.38309 -5.74969 30981 ft 394 kts 166°
2026-05-07 15:52 52.35671 -5.73681 30973 ft 396 kts 165°
2026-05-07 15:53 52.30436 -5.71059 30987 ft 389 kts 165°
2026-05-07 15:53 52.25243 -5.68509 31008 ft 391 kts 166°
2026-05-07 15:54 52.20144 -5.65450 31003 ft 395 kts 159°
2026-05-07 15:54 52.15088 -5.61922 31002 ft 396 kts 159°
2026-05-07 15:55 52.10015 -5.58459 30997 ft 395 kts 160°
2026-05-07 15:55 52.04948 -5.55066 31001 ft 393 kts 160°
2026-05-07 15:56 51.99976 -5.51388 31002 ft 392 kts 156°
2026-05-07 15:56 51.95090 -5.47465 31002 ft 391 kts 156°
2026-05-07 15:57 51.90211 -5.43570 31000 ft 391 kts 156°
2026-05-07 15:57 51.85329 -5.39720 31005 ft 390 kts 156°
2026-05-07 15:58 51.80442 -5.35890 31007 ft 391 kts 156°
2026-05-07 15:58 51.75543 -5.32062 31009 ft 391 kts 156°
2026-05-07 15:59 51.70638 -5.28239 31008 ft 392 kts 156°
2026-05-07 15:59 51.65726 -5.24418 31009 ft 392 kts 156°
2026-05-07 16:00 51.60818 -5.20610 31007 ft 391 kts 156°
2026-05-07 16:00 51.55949 -5.16840 31011 ft 391 kts 156°
2026-05-07 16:01 51.51068 -5.13020 31012 ft 391 kts 153°
2026-05-07 16:01 51.48808 -5.10585 31007 ft 394 kts 142°
2026-05-07 16:01 51.46745 -5.07698 31014 ft 394 kts 141°
2026-05-07 16:02 51.42663 -5.01828 31007 ft 394 kts 141°
2026-05-07 16:02 51.38579 -4.95997 31011 ft 393 kts 141°
2026-05-07 16:03 51.34480 -4.90205 31007 ft 393 kts 141°
2026-05-07 16:03 51.30373 -4.84435 31008 ft 393 kts 141°
2026-05-07 16:04 51.26263 -4.78678 31013 ft 393 kts 141°
2026-05-07 16:04 51.22172 -4.72960 31000 ft 394 kts 141°
2026-05-07 16:05 51.18047 -4.67209 31023 ft 394 kts 141°
2026-05-07 16:05 51.13907 -4.61452 31015 ft 395 kts 141°
2026-05-07 16:06 51.09760 -4.55695 31014 ft 396 kts 142°
2026-05-07 16:06 51.05602 -4.49940 31011 ft 396 kts 142°
2026-05-07 16:07 51.01200 -4.44753 31021 ft 393 kts 150°
2026-05-07 16:07 50.96552 -4.40196 31006 ft 393 kts 151°
2026-05-07 16:08 50.91903 -4.35665 31004 ft 393 kts 150°
2026-05-07 16:08 50.87266 -4.31096 31016 ft 392 kts 150°
2026-05-07 16:09 50.82644 -4.26518 31002 ft 392 kts 150°
2026-05-07 16:09 50.78025 -4.21945 31009 ft 391 kts 150°
2026-05-07 16:10 50.73411 -4.17385 31009 ft 391 kts 150°
2026-05-07 16:10 50.68793 -4.12832 31006 ft 392 kts 150°
2026-05-07 16:11 50.64169 -4.08284 31002 ft 392 kts 150°
2026-05-07 16:11 50.59541 -4.03743 31003 ft 392 kts 150°
2026-05-07 16:12 50.54907 -3.99207 31000 ft 392 kts 150°
2026-05-07 16:12 50.50278 -3.94686 31001 ft 392 kts 150°
2026-05-07 16:13 50.45677 -3.90203 31005 ft 392 kts 151°
2026-05-07 16:13 50.41039 -3.85695 31008 ft 392 kts 151°
2026-05-07 16:14 50.36400 -3.81195 31008 ft 392 kts 151°
2026-05-07 16:14 50.31764 -3.76710 31009 ft 392 kts 151°
2026-05-07 16:15 50.27120 -3.72227 31005 ft 392 kts 151°
2026-05-07 16:15 50.22483 -3.67761 31009 ft 391 kts 151°
2026-05-07 16:16 50.17846 -3.63306 31005 ft 391 kts 151°
2026-05-07 16:16 50.13207 -3.58859 31004 ft 392 kts 151°
2026-05-07 16:17 50.08564 -3.54418 31009 ft 392 kts 151°
2026-05-07 16:17 50.03921 -3.49986 31007 ft 392 kts 151°
2026-05-07 16:18 49.99303 -3.45590 31009 ft 392 kts 151°
2026-05-07 16:18 49.94621 -3.41141 31009 ft 392 kts 151°
2026-05-07 16:19 49.90001 -3.36762 31002 ft 392 kts 151°
2026-05-07 16:19 49.85354 -3.32365 31002 ft 391 kts 151°
2026-05-07 16:20 49.80708 -3.27985 31003 ft 390 kts 152°
2026-05-07 16:20 49.75714 -3.24959 31004 ft 384 kts 171°
2026-05-07 16:21 49.70462 -3.23444 31000 ft 384 kts 172°
2026-05-07 16:21 49.65203 -3.21976 30998 ft 384 kts 172°
2026-05-07 16:22 49.59950 -3.20478 30996 ft 384 kts 171°
2026-05-07 16:22 49.54691 -3.18959 30995 ft 384 kts 171°
2026-05-07 16:23 49.49432 -3.17435 30998 ft 385 kts 171°
2026-05-07 16:23 49.44174 -3.15913 30992 ft 385 kts 171°
2026-05-07 16:24 49.38914 -3.14394 30990 ft 385 kts 171°
2026-05-07 16:24 49.33656 -3.12878 30989 ft 385 kts 171°
2026-05-07 16:25 49.28394 -3.11366 30989 ft 385 kts 171°
2026-05-07 16:25 49.23130 -3.09855 30976 ft 385 kts 172°
2026-05-07 16:26 49.17901 -3.08358 30984 ft 385 kts 172°
2026-05-07 16:26 49.12631 -3.06853 30984 ft 386 kts 172°
2026-05-07 16:27 49.07346 -3.05347 30984 ft 386 kts 172°
2026-05-07 16:27 49.02059 -3.03843 30975 ft 386 kts 172°
2026-05-07 16:28 48.96777 -3.02344 30982 ft 386 kts 172°
2026-05-07 16:28 48.91501 -3.00849 30978 ft 385 kts 172°
2026-05-07 16:29 48.86234 -2.99361 30977 ft 385 kts 172°
2026-05-07 16:29 48.81860 -2.98127 30982 ft 385 kts 172°
2026-05-07 16:30 48.76583 -2.96641 30992 ft 386 kts 172°
2026-05-07 16:30 48.71298 -2.95150 30991 ft 386 kts 171°
2026-05-07 16:31 48.66110 -2.92972 30992 ft 387 kts 166°
2026-05-07 16:31 48.60969 -2.90626 30987 ft 385 kts 166°
2026-05-07 16:32 48.55840 -2.88306 30988 ft 384 kts 166°
2026-05-07 16:32 48.50715 -2.86016 30982 ft 385 kts 166°
2026-05-07 16:33 48.45564 -2.83729 30972 ft 387 kts 166°
2026-05-07 16:33 48.40393 -2.81440 30970 ft 388 kts 166°
2026-05-07 16:34 48.35221 -2.79155 30964 ft 387 kts 166°
2026-05-07 16:34 48.30048 -2.76874 30968 ft 387 kts 166°
2026-05-07 16:35 48.24879 -2.74600 30969 ft 387 kts 166°
2026-05-07 16:35 48.19710 -2.72331 30966 ft 387 kts 166°
2026-05-07 16:36 48.14546 -2.70068 30966 ft 386 kts 166°
2026-05-07 16:36 48.09390 -2.67814 30971 ft 386 kts 166°
2026-05-07 16:37 48.04241 -2.65568 30964 ft 385 kts 166°
2026-05-07 16:37 47.99130 -2.63343 30968 ft 385 kts 166°
2026-05-07 16:38 47.93988 -2.61109 30969 ft 385 kts 166°
2026-05-07 16:38 47.88925 -2.58911 30700 ft 373 kts 166°
2026-05-07 16:38 47.86464 -2.57845 30455 ft 366 kts 166°
2026-05-07 16:39 47.84021 -2.56788 30109 ft 364 kts 166°
2026-05-07 16:39 47.81602 -2.55744 29729 ft 361 kts 166°
2026-05-07 16:39 47.79205 -2.54709 29373 ft 357 kts 166°
2026-05-07 16:39 47.76835 -2.53687 28992 ft 353 kts 166°
2026-05-07 16:40 47.74489 -2.52676 28641 ft 349 kts 166°
2026-05-07 16:40 47.72165 -2.51676 28277 ft 346 kts 166°
2026-05-07 16:40 47.69912 -2.50472 27915 ft 345 kts 155°
2026-05-07 16:40 47.67885 -2.48592 27606 ft 344 kts 145°
2026-05-07 16:41 47.66130 -2.46185 27243 ft 345 kts 135°
2026-05-07 16:41 47.64556 -2.43514 26915 ft 343 kts 134°
2026-05-07 16:41 47.63015 -2.40832 26569 ft 341 kts 133°
2026-05-07 16:41 47.61483 -2.38158 26238 ft 340 kts 133°
2026-05-07 16:42 47.59954 -2.35502 25883 ft 338 kts 134°
2026-05-07 16:42 47.58430 -2.32872 25548 ft 336 kts 134°
2026-05-07 16:42 47.56911 -2.30260 25214 ft 333 kts 134°
2026-05-07 16:42 47.55398 -2.27670 24888 ft 332 kts 134°
2026-05-07 16:43 47.53893 -2.25098 24557 ft 330 kts 134°
2026-05-07 16:43 47.52390 -2.22536 24227 ft 329 kts 134°
2026-05-07 16:43 47.50896 -2.19991 23899 ft 327 kts 134°
2026-05-07 16:43 47.49405 -2.17455 23574 ft 326 kts 134°
2026-05-07 16:44 47.47919 -2.14929 23189 ft 325 kts 134°
2026-05-07 16:44 47.46438 -2.12416 22830 ft 323 kts 134°
2026-05-07 16:44 47.44968 -2.09921 22490 ft 321 kts 134°
2026-05-07 16:44 47.43527 -2.07478 22154 ft 318 kts 134°
2026-05-07 16:45 47.42080 -2.05028 21864 ft 315 kts 134°
2026-05-07 16:45 47.40646 -2.02601 21532 ft 313 kts 134°
2026-05-07 16:45 47.39220 -2.00191 21222 ft 311 kts 134°
2026-05-07 16:45 47.37803 -1.97797 20906 ft 309 kts 134°
2026-05-07 16:46 47.36389 -1.95412 20594 ft 308 kts 134°
2026-05-07 16:46 47.34979 -1.93037 20278 ft 307 kts 134°
2026-05-07 16:46 47.33576 -1.90671 19968 ft 306 kts 134°
2026-05-07 16:46 47.32182 -1.88319 19657 ft 304 kts 134°
2026-05-07 16:47 47.30792 -1.85974 19344 ft 303 kts 134°
2026-05-07 16:47 47.29412 -1.83646 19048 ft 301 kts 134°
2026-05-07 16:47 47.28035 -1.81326 18744 ft 300 kts 134°
2026-05-07 16:47 47.26663 -1.79018 18441 ft 299 kts 134°
2026-05-07 16:48 47.25295 -1.76717 18120 ft 298 kts 134°
2026-05-07 16:48 47.23933 -1.74428 17777 ft 297 kts 134°
2026-05-07 16:48 47.22575 -1.72148 17454 ft 295 kts 134°
2026-05-07 16:48 47.21228 -1.69886 17150 ft 293 kts 134°
2026-05-07 16:49 47.19884 -1.67634 16840 ft 292 kts 134°
2026-05-07 16:49 47.18550 -1.65401 16541 ft 290 kts 134°
2026-05-07 16:49 47.17223 -1.63183 16241 ft 289 kts 135°
2026-05-07 16:49 47.15681 -1.61321 15934 ft 287 kts 154°
2026-05-07 16:50 47.13822 -1.60266 15630 ft 289 kts 166°
2026-05-07 16:50 47.11858 -1.59472 15306 ft 296 kts 167°
2026-05-07 16:50 47.09856 -1.58706 14967 ft 297 kts 167°
2026-05-07 16:50 47.07859 -1.57944 14639 ft 296 kts 167°
2026-05-07 16:51 47.05874 -1.57180 14317 ft 293 kts 167°
2026-05-07 16:51 47.03908 -1.56415 14011 ft 292 kts 167°
2026-05-07 16:51 47.01949 -1.55649 13694 ft 291 kts 167°
2026-05-07 16:51 47.00000 -1.54882 13360 ft 290 kts 167°
2026-05-07 16:52 46.98085 -1.54128 13033 ft 288 kts 167°
2026-05-07 16:52 46.96156 -1.53366 12722 ft 286 kts 167°
2026-05-07 16:52 46.94239 -1.52608 12408 ft 284 kts 167°
2026-05-07 16:52 46.92335 -1.51856 12109 ft 283 kts 167°
2026-05-07 16:53 46.90442 -1.51108 11812 ft 281 kts 167°
2026-05-07 16:53 46.88562 -1.50365 11515 ft 280 kts 166°
2026-05-07 16:53 46.86687 -1.49625 11222 ft 278 kts 166°
2026-05-07 16:53 46.84823 -1.48890 10932 ft 277 kts 166°
2026-05-07 16:54 46.82965 -1.48157 10637 ft 277 kts 166°
2026-05-07 16:54 46.81107 -1.47425 10332 ft 276 kts 166°
2026-05-07 16:54 46.79258 -1.46697 10090 ft 273 kts 166°
2026-05-07 16:54 46.77454 -1.45986 9944 ft 266 kts 166°
2026-05-07 16:55 46.75663 -1.45281 9641 ft 266 kts 166°
2026-05-07 16:55 46.73880 -1.44581 9349 ft 265 kts 166°
2026-05-07 16:55 46.72109 -1.43885 9063 ft 263 kts 166°
2026-05-07 16:55 46.70347 -1.43193 8784 ft 261 kts 166°
2026-05-07 16:56 46.68594 -1.42506 8506 ft 260 kts 165°
2026-05-07 16:56 46.66855 -1.41823 8233 ft 258 kts 165°
2026-05-07 16:56 46.63401 -1.40471 7695 ft 256 kts 165°
2026-05-07 16:57 46.61684 -1.39799 7423 ft 255 kts 165°
2026-05-07 16:57 46.59972 -1.39130 7151 ft 254 kts 165°
2026-05-07 16:57 46.58271 -1.38448 6890 ft 253 kts 164°
2026-05-07 16:57 46.56580 -1.37762 6630 ft 252 kts 164°
2026-05-07 16:58 46.54898 -1.37081 6360 ft 251 kts 163°
2026-05-07 16:58 46.53219 -1.36402 6083 ft 249 kts 164°
2026-05-07 16:58 46.51551 -1.35728 5824 ft 249 kts 163°
2026-05-07 16:58 46.49972 -1.34754 5529 ft 248 kts 140°
2026-05-07 16:59 46.48851 -1.32888 5339 ft 246 kts 126°
2026-05-07 16:59 46.47846 -1.30865 5066 ft 248 kts 126°
2026-05-07 16:59 46.46844 -1.28832 4795 ft 248 kts 125°
2026-05-07 16:59 46.45837 -1.26793 4534 ft 248 kts 125°
2026-05-07 17:00 46.44827 -1.24752 4267 ft 250 kts 125°
2026-05-07 17:00 46.43809 -1.22702 3994 ft 251 kts 125°
2026-05-07 17:00 46.42788 -1.20654 3733 ft 252 kts 125°
2026-05-07 17:00 46.41760 -1.18594 3445 ft 252 kts 125°
2026-05-07 17:01 46.40735 -1.16544 3158 ft 249 kts 125°
2026-05-07 17:01 46.39728 -1.14536 2904 ft 244 kts 125°
2026-05-07 17:01 46.38735 -1.12556 2633 ft 241 kts 125°
2026-05-07 17:01 46.37774 -1.10641 2511 ft 228 kts 125°
2026-05-07 17:02 46.36876 -1.08855 2475 ft 212 kts 125°
2026-05-07 17:02 46.36023 -1.07162 2486 ft 204 kts 125°
2026-05-07 17:02 46.35208 -1.05543 2494 ft 194 kts 125°
2026-05-07 17:02 46.34432 -1.04001 2505 ft 193 kts 125°
2026-05-07 17:03 46.33642 -1.02431 2511 ft 192 kts 125°
2026-05-07 17:03 46.32860 -1.00878 2494 ft 190 kts 125°
2026-05-07 17:03 46.32090 -0.99348 2485 ft 187 kts 125°
2026-05-07 17:03 46.31313 -0.97809 2494 ft 191 kts 124°
2026-05-07 17:04 46.30532 -0.96261 2493 ft 191 kts 125°
2026-05-07 17:04 46.29744 -0.94705 2488 ft 191 kts 124°
2026-05-07 17:04 46.28963 -0.93159 2468 ft 190 kts 125°
2026-05-07 17:04 46.28184 -0.91627 2466 ft 188 kts 127°
2026-05-07 17:05 46.27131 -0.90553 2483 ft 191 kts 165°
2026-05-07 17:05 46.25796 -0.90754 2493 ft 201 kts 201°
2026-05-07 17:05 46.24549 -0.91689 2490 ft 202 kts 206°
2026-05-07 17:05 46.23311 -0.92636 2481 ft 201 kts 205°
2026-05-07 17:06 46.22078 -0.93581 2477 ft 200 kts 206°
2026-05-07 17:06 46.20872 -0.94504 2476 ft 192 kts 206°
2026-05-07 17:06 46.19711 -0.95393 2478 ft 187 kts 206°
2026-05-07 17:06 46.18555 -0.96276 2480 ft 189 kts 205°
2026-05-07 17:07 46.17513 -0.97425 2457 ft 189 kts 237°
2026-05-07 17:07 46.17293 -0.99197 2494 ft 177 kts 278°
2026-05-07 17:07 46.17403 -1.00968 2503 ft 179 kts 272°
2026-05-07 17:07 46.17447 -1.02745 2380 ft 177 kts 272°
2026-05-07 17:08 46.17493 -1.04506 2150 ft 175 kts 272°
2026-05-07 17:08 46.17541 -1.06231 1899 ft 168 kts 272°
2026-05-07 17:08 46.17586 -1.07843 1715 ft 154 kts 273°
2026-05-07 17:08 46.17631 -1.09408 1467 ft 157 kts 272°
2026-05-07 17:09 46.17674 -1.10964 1241 ft 153 kts 273°
2026-05-07 17:09 46.17718 -1.12484 1029 ft 151 kts 272°
2026-05-07 17:09 46.17753 -1.13999 840 ft 150 kts 272°
2026-05-07 17:09 46.17796 -1.15448 619 ft 139 kts 274°
2026-05-07 17:10 46.17831 -1.16798 413 ft 135 kts 275°
2026-05-07 17:10 46.17876 -1.18150 204 ft 134 kts 274°
2026-05-07 17:10 46.17917 -1.19446 76 ft 122 kts 274°
2026-05-07 17:10 46.17945 -1.20393 71 ft 65 kts 272°
2026-05-07 17:11 46.17955 -1.20703 68 ft 15 kts 273°
2026-05-07 17:11 46.17949 -1.20859 72 ft 12 kts 243°
2026-05-07 17:11 46.17953 -1.20928 73 ft 2 kts
2026-05-07 17:11 46.17961 -1.20901 69 ft 5 kts 84°
2026-05-07 17:12 46.17956 -1.20794 68 ft 13 kts 94°
2026-05-07 17:12 46.17951 -1.20649 72 ft 16 kts 92°
2026-05-07 17:12 46.17946 -1.20460 68 ft 22 kts 92°
2026-05-07 17:12 46.17941 -1.20239 68 ft 22 kts 91°
2026-05-07 17:13 46.17934 -1.20030 77 ft 20 kts 92°
2026-05-07 17:13 46.17928 -1.19839 73 ft 19 kts 93°
2026-05-07 17:13 46.17922 -1.19628 76 ft 23 kts 92°
2026-05-07 17:13 46.17916 -1.19449 75 ft 0 kts 95°
2026-05-07 17:14 46.17915 -1.19445 75 ft 2 kts 114°
2026-05-07 17:14 46.17902 -1.19453 66 ft 6 kts 214°
2026-05-07 17:14 46.17849 -1.19494 72 ft 11 kts 186°
2026-05-07 17:14 46.17757 -1.19499 72 ft 15 kts 182°
2026-05-07 17:15 46.17689 -1.19413 76 ft 16 kts 96°
2026-05-07 17:15 46.17685 -1.19263 71 ft 11 kts 92°
2026-05-07 17:15 46.17657 -1.19232 69 ft 3 kts 199°
2026-05-07 17:15 46.17644 -1.19252 73 ft 3 kts 236°
2026-05-07 17:16 46.17643 -1.19269 70 ft 3 kts 282°
2026-05-07 17:16 46.17649 -1.19281 76 ft 1 kts 302°
2026-05-07 17:16 46.17652 -1.19288 76 ft 0 kts 306°
2026-05-07 17:17 46.17653 -1.19289 76 ft 0 kts 314°
2026-05-07 17:17 46.17652 -1.19288 76 ft 1 kts 315°
2026-05-07 17:17 46.17653 -1.19289 76 ft 0 kts 315°